This is the latest recevied weather packets stored in our database for station/object WX9WTF. If no packets are shown the sender has not sent any weather packets the latest 10 day(s).
| Time | Temp. | Humidity | Pressure | Rain* | Wind** | Luminosity | Snow |
|---|---|---|---|---|---|---|---|
| 1778284695 | 18.33° C | 78% | 1007.9 hPa | 0 mm | - | 53 W/m² | - |
| 1778284392 | 18.33° C | 79% | 1008 hPa | 0 mm | - | 64 W/m² | - |
| 1778284089 | 18.33° C | 81% | 1007.9 hPa | 0 mm | - | 71 W/m² | - |
| 1778283784 | 18.33° C | 81% | 1007.6 hPa | 0 mm | - | 79 W/m² | - |
| 1778283483 | 18.33° C | 78% | 1007.8 hPa | 0 mm | - | 72 W/m² | - |
| 1778283182 | 18.33° C | 77% | 1007.6 hPa | 0 mm | - | 70 W/m² | - |
| 1778282879 | 18.89° C | 78% | 1007.6 hPa | 0 mm | - | 72 W/m² | - |
| 1778282575 | 18.89° C | 80% | 1007.6 hPa | 0 mm | - | 81 W/m² | - |
| 1778282274 | 18.89° C | 77% | 1007.6 hPa | 0 mm | - | 127 W/m² | - |
| 1778281969 | 18.89° C | 80% | 1007.9 hPa | 0 mm | - | 134 W/m² | - |
| 1778281666 | 18.33° C | 81% | 1007.9 hPa | 0 mm | - | 288 W/m² | - |
| 1778281362 | 17.78° C | 82% | 1007.8 hPa | 0 mm | - | 217 W/m² | - |
| 1778281061 | 17.78° C | 82% | 1007.9 hPa | 0 mm | - | 98 W/m² | - |
| 1778280757 | 17.78° C | 81% | 1008.1 hPa | 0 mm | - | 85 W/m² | - |
| 1778280455 | 17.78° C | 81% | 1008.3 hPa | 0 mm | - | 88 W/m² | - |
| 1778280152 | 17.78° C | 81% | 1008.2 hPa | 0 mm | - | 107 W/m² | - |
| 1778279850 | 17.78° C | 81% | 1008.6 hPa | 0 mm | - | 102 W/m² | - |
| 1778279547 | 17.78° C | 81% | 1008.5 hPa | 0 mm | - | 106 W/m² | - |
| 1778279244 | 18.33° C | 81% | 1008.6 hPa | 0 mm | - | 170 W/m² | - |
| 1778278941 | 18.33° C | 82% | 1008.5 hPa | 0 mm | - | 184 W/m² | - |
| 1778278638 | 18.33° C | 81% | 1008.5 hPa | 0 mm | - | 189 W/m² | - |
| 1778278333 | 18.89° C | 78% | 1008.3 hPa | 0 mm | - | 427 W/m² | - |
| 1778278029 | 18.89° C | 78% | 1008.2 hPa | 0 mm | - | 466 W/m² | - |
| 1778277727 | 18.89° C | 77% | 1008.3 hPa | 0 mm | - | 527 W/m² | - |
| 1778277423 | 19.44° C | 78% | 1008.3 hPa | 0 mm | - | 519 W/m² | - |
* Rain latest hour (hover to see other rain measurements)
** Current wind speed in m/s (hover to see current wind gust speed)